Timeline UpdatesTrip UpdatesNews PostsPvt Posts♥♥Travel TipsAdmin PostsConv PostsFollowed PostsChat RequestsBlog PostsPNR Posts

Disclaimer
Search
 
 
Fri Dec 19, 2014 23:44:12 ISTHomeTrainsΣChainsAtlasPNRForumGalleryNewsFAQTripsMembersLoginFeedback
No Recent News for this Train
Other Trains in the News **new
Latest...
⇐ Return Journey: Train# 54824

54823/Jodhpur Hisar passenger (UnReserved)

Time-Table HAS CHANGED.
Sep 03 2014 (1:57PM)
Change Departure Station:
Change Arrival Station:
Post a Train Travel TipPost a Train Travel Tip **new
Post a Comment/Question/Picture/VideoPost a Comment/Question/Picture/Video
Pantry/Catering
✕ NO Pantry Car
✕ NO Catering
RSA - Rake Sharing
Rake/Coach Composition
7 general , 2 slr , total 9 coach.
Loco
ABR WDM - 3A.
News    PNR    Forum    Time-Table    Availability    Fare Chart    Map    Arr/Dep History    Trips    Gallery    ΣChains    X/O    Timeline    
Travel Time: 1h 0m    4 halts    Distance: 40 km    Avg Speed: 40 km/hr
Type: Passenger
Zone: NWR/North Western
Departs @ 11:10 (Avg 7m late)
Platform# ???
SMTWTFS
Jodhpur Junction/JU 
Arrives @ 12:10 (Avg 34m late)
Platform# ???
SMTWTFS
Kheri Salwa/KSW 

4 halts. 5 intermediate Stations between Jodhpur Junction and Kheri Salwa

Show ALL intermediate Stations  Show Old Time-Table

#TrkCodeStation NameX/OArrivesAvgDepartsAvgHaltPFDay#KmSpeedElevZoneAddress
1|=-|JUJodhpur Junction (5)»  -11:10+7--10.028241mNWRJodhpur, Rajasthan
2|--|RKBRaikabagh Palace Junction (2)  11:15+1911:17+312m--12.338237mNWRJodhpur, Rajasthan
3|--|BNOBanarX  11:36+2911:38+302m--114.262213mNWRBanar, Rajasthan
4|--|JWLJajiwal  11:46+3011:48+312m--122.567228mNWRJodhpur, Rajasthan
5|--|AASAsranadaX  11:56+3211:58+372m--131.346251mNWRState Highway 58, Rajasthan
6|--|KSWKheri Salwa•  12:11 12:10+3412:13 12:11+352 1m--140.464269mNWRJajiwal, Rajasthan
7|--|PPRPipar Road Junction  12:19 12:17+3812:21 12:19+402m--146.951272mNWRState Highway 58, Rajasthan
8|--|SWFSathin Road  12:30 12:29+3912:32 12:30+432 1m--155.562284mNWRUMED, Rajasthan
9|--|UMEDUmed  12:41 12:40+4312:43 12:41+482 1m--165.861308mNWRJodhpur, Rajasthan
10|--|KXGKharia KhangarhX  12:53 12:51+4912:55 12:53+562m--176.023310mNWRKharia Khangar, Rajasthan
11|--|GOTNGotan (3)X  13:08 13:12+4613:10 13:14+522m--183.153323mNWRGotan, Rajasthan
12|--|JOMJogi Magra (1)  13:20 13:25+5113:22 13:27+562m1192.942335mNWRNagaur, Rajasthan
13|--|MTDMerta Road Junction (4)  13:42+5413:47+585m--1103.3103322mNWRPhalodi, Rajasthan
14|--|KQWKheduli (1)X  13:55 13:56+1:0013:57+1:022 1m--1118.717307mNWRRen, Rajasthan
15|--|RENRen  14:04+1:0314:06+1:052m--1120.763307mNWRNagaur, Rajasthan
16|--|JACJalsu  14:19+1:0414:21+1:052m--1134.448321mNWRNagaur, Rajasthan
17|--|JACNJalsu NanakX  14:28-14:30-2m--1140.013331mNWRREN, Rajasthan
18|--|DNADegana Junction (4)X  14:56 15:05+3614:59 15:10+353 5m--1147.375339mNWRDegana, Rajasthan
19|--|KRCKiroda  15:09 15:20+3615:11 15:21+362 1m--1159.968351mNWRDegana, Rajasthan
20|--|KHTUKhatu  15:37 15:32+3715:39 15:33+382 1m--1172.353359mNWRKhatu Khurd, Rajasthan
21|--|CTKTChoti Khatu  15:45 15:39+015:47 15:41+02m--1177.658338mNWRDegana, Rajasthan
22|--|PWPirwa  16:00 15:55-16:02 15:56-2 1m--1191.053337mNWRDegana, Rajasthan
23|--|KKNAKhunkhuna  16:10 16:03+3616:12 16:04+362 1m--1197.257350mNWRState Highway 60, Rajasthan
24|--|MBSKMarwar Balia  16:22 16:15-16:24 16:16-2 1m--1207.648335mNWRMarwar, Rajasthan
25|--|DIADidwana  16:30 16:23+3316:32 16:26+332 3m--1213.256342mNWRDidwana, Rajasthan
26|--|SVOSanvrad  16:45 16:40-16:47 16:41-2 1m--1226.456338mNWRDidwana, Rajasthan
27|--|BLSDBalsamand  16:55 16:50-16:57 16:51-2 1m--1234.848323mNWRDidwana, Rajasthan
28|--|LAULadnun (1)  17:06 17:03+2917:08 17:05+302m--1244.322330mNWRNagaur District. 341306, Rajasthan
29|--|JSHJaswantgarh  17:16 17:18-17:18 17:19-2 1m--1249.013312mNWRSujangarh, Rajasthan
30|--|SUJHSujangarhX  17:24 17:42+1017:26 17:45+122 3m--1254.161318mNWRSujangarh, Rajasthan
31|--|TLCTalchhapar  17:39 17:58+617:41 18:00+62m--1267.464305mNWRSujangarh, Rajasthan
32|--|PIHParhiharaX  17:52 18:12+617:54 18:14+132m--1280.233312mNWRSujangarh, Rajasthan
33|--|LOHALoha  18:09 18:35-18:11 18:36-2 1m--1291.736318mNWRRatangarh, Rajasthan
34|--|RTGHRatangarh JunctionX  18:50+519:00+510m--1300.072309mNWRRatangarh, Rajasthan
35|--|MIOMolisar  19:14+919:15+91m--1316.960310mNWRChuru, Rajasthan
36|--|SMNNShri Makri Nath Nagar  19:21-19:22-1m--1323.039307mNWRChuru, Rajasthan
37|--|JOHJuharpura  19:27+919:28+101m--1326.268302mNWRState Highway 69, Rajasthan
38|--|DEPDepalsar  19:36+1119:38+102m--1335.238292mNWRChuru, Rajasthan
39|--|CURChuru Junction (3)  19:50+2220:00+2110m--1342.880288mNWRChuru Junction, Rajasthan
40|--|ASLUAslu  20:11+1220:13+112m--1357.453284mNWRNational Highway 65, Rajasthan
41|--|SRSLSirsala20:23-20:24-1m--1366.353275mNWRNational Highway 65, Rajasthan
42|--|DKXDudhwakharaX  20:30+1020:31+131m--1371.656262mNWRNational Highway 65, Rajasthan
43|--|HYLHadyal  20:45+1220:46+121m--1384.756255mNWRMDR 97, Rajasthan
44|--|DKWADokwa  20:54+1220:55+141m--1392.251251mNWRNational Highway 65, Rajasthan
45|--|SDLPSadulpur Junction  21:05+1921:10+195m--1400.640239mNWRRajgarh, Rajasthan
46!--!SURPSuratpura  21:16+1321:17+131m--1404.670239mNWRNational Highway 65, Rajasthan
47|--|JUPJhunpa  21:31+1221:32+121m--1421.078225mNWRDist. Bhiwani 127046, Haryana
48|--|SWNISiwani  21:47+1521:49+152m--1440.556210mNWRNational Highway 65, Haryana
49|--|CRWCharaud  22:01+1122:02+111m--1451.634212mNWRNational Highway 65, Haryana
50|--|HSRHisar Junction (6)  22:35+3---1470.5-215mNWRHisar, Haryana
Scroll to Top
Scroll to Bottom


Go to Mobile site